Tracking 28790 objects as of 19-Apr-2024
HD Live streaming from Space Station
objects crossing your sky now

THOR ABLE DEB (YO)

Track THOR ABLE DEB (YO) now!
10-day predictions


NORAD ID: 115
Int'l Code: 1960-002D
Perigee: 586.4 km
Apogee: 630.3 km
Inclination: 48.2 °
Period: 96.7 minutes
Semi major axis: 6979 km
RCS: 0.0477 m2 (small)
Launch date: April 1, 1960
Source: United States (US)
Launch site: AIR FORCE EASTERN TEST RANGE (AFETR)

Note: This is SATELLITE DEBRIS
Your satellite tracking list
Your tracking list is empty




NASA's NSSDC Master Catalog

Two Line Element Set (TLE):
1   115U 60002D   24110.06042225  .00007149  00000-0  76888-3 0  9995
2   115  48.1672 359.4129 0031447 320.0196  39.8404 14.88957062421285
Source of the keplerian elements: AFSPC